CZ-4 DEB, 26150

Orbit data source: Space-Track

CZ-4 DEB, 26150 is space debris in SSO originally from a launch on Thu, 14 Oct 1999 UTC launched from the Taiyaun Space Center, China (TSC). Debris objects in space refer to the collection of defunct objects orbiting the Earth. Examples of debris include non-operational satellites, rocket bodies, and fragments generated from explosions, collisions, or faulty payload assembly.

Loading next visibility...
Identifier
26150, 1999-057AL
Orbit
SSO
Country
Flag of CNCN / PRC
Related business
Manufacturer
Unknown
Mission
Spacecraft
Bus & Motor
Unknown
Mass
Unknown
Launch date (UTC)
1999-10-14 (26 years ago)
Launch vehicle
Unknown
Launch site
Taiyaun Space Center, China (TSC)
Object type
Payload
Rocket body
Debris
Shape & HBR
Unknown shape, 0.1 m
Radar Cross Section
Small (<0.1 m²)

Expand to show TLE details & history
Last TLE update: 12 hours ago

TLE from 12 hours ago
0 CZ-4 DEB
1 26150U 99057AL  25289.49429815  .00001367  00000-0  85564-3 0  9990
2 26150  99.1118  11.4631 0339076  11.2379 103.8244 13.81418202281746
Epoch: 2025-10-16T11:51Z
TLE epoch observation values (Epoch: 2025-10-16T11:51:47.360Z)
Latitude
60.01039°
Longitude
4.31284°
Altitude
1,036.321 km
Speed
7.306 km/s
True Right ascension
13h 50m 03s
True Declination
59° 52' 01"
Sunlit
Object was in daylight at epoch
Visualization orbit readout
Latitude
Unknown
Longitude
Unknown
Altitude
Unknown
Speed
Unknown
Apparent Right ascension
Unknown
Apparent Declination
Unknown
Sunlit
N/A
Visualization observer readout
Local Sidereal Time
18:16:05
Azimuth
Unknown
Elevation
Unknown
Doppler factor
Unknown
Orbital elements
Apogee altitude
1,204.772 km
Perigee altitude
707.4 km
Semi-major axis
7,334.223 km
Eccentricity
0.03391
Inclination
99.1118°
RAAN
11.4631°
Arg. of periapsis
11.2379°
True anomaly
107.55689°
Mean anomaly
103.8244°
Eccentric anomaly
105.69473°
Mean motion
3.45551 °/min
Orbital period
104.18 mins
BSTAR
0.00085564
Loading maneuver chart data...
Computing Atmospheric mass density...

Documentation

Showing up to 5 results
|